Location: Biltmore Gardens
(41.6070°N, 83.4666°W)
Time: 10:24:17
(UTC+00:00)

Vanguard 3 - Pass Details

Date: 23 April 2021
Orbit: 508 x 3262 km, 33.3° (Epoch: 08 May)

Event Time Altitude Azimuth Distance (km) Brightness Sun altitude
Exits shadow 08:44:10 19° 154° (SSE) 1,276 8.0 -20.0°
Drops below altitude 10° 08:45:41 10° 133° (SE) 1,710 8.9 -19.8°
Sets 08:48:06 0° 118° (ESE) 2,627 10.1 -19.5°
